Frankfort, KY

5:48 PM EDT on August 29, 2016 (GMT -0400)
Capital City

Weather History for KFFT - April, 2013

Change the Weather History Date:

Wednesday, April 10, 2013

  Actual Average Record
Temperature  
Mean Temperature 71 °F 54 °F  
Max Temperature 83 °F 65 °F 84 °F (2001)
Min Temperature 58 °F 42 °F 23 °F (1997)
Degree Days  
Heating Degree Days 0 12  
Month to date heating degree days 134 135  
Since 1 July heating degree days 4488 4399  
Cooling Degree Days 6 1  
Month to date cooling degree days 8 2  
Year to date cooling degree days 8 4  
Growing Degree Days 20 (Base 50)    
Moisture  
Dew Point 57 °F    
Average Humidity 65    
Maximum Humidity 87    
Minimum Humidity 43    
Precipitation  
Precipitation 0.00 in 0.12 in 1.85 in (1943)
Month to date precipitation 0.00 1.14  
Year to date precipitation 10.83 12.07  
Sea Level Pressure  
Sea Level Pressure 29.91 in    
Wind  
Wind Speed 10 mph (SSW)    
Max Wind Speed 25 mph    
Max Gust Speed 32 mph    
Visibility 10 miles    
Events      
T = Trace of Precipitation, MM = Missing Value Source: NWS Daily Summary

Daily Weather History Graph

Daily Weather History Graph

Search for Another Location

Airport or City:

Trip Planner

Search our weather history database for the weather conditions in past years. The results will help you decide how hot, cold, wet, or windy it might be!

Date:

Astronomy

Apr. 10, 2013 Rise Set
Actual Time 7:10 AM EDT 8:11 PM EDT
Civil Twilight 6:43 AM EDT 8:38 PM EDT
Nautical Twilight 6:11 AM EDT 9:10 PM EDT
Astronomical Twilight 5:38 AM EDT 9:44 PM EDT
Moon 7:06 AM EDT (4/10) 8:45 PM EDT (4/10)
Length of Visible Light 13h 54m
Length of Day
13h 00m
New Moon, 0% of the Moon is Illuminated
Apr 10
New Moon
Apr 18
First Quarter
Apr 25
Full
May 2
Last Quarter
May 9
New

Hourly Weather History & Observations

Time (EDT) Temp. Heat Index Dew Point Humidity Pressure Visibility Wind Dir Wind Speed Gust Speed Precip Events Conditions
12:53 AM 60.1 °F - 55.9 °F 86% 29.98 in 10.0 mi Calm Calm - N/A   Partly Cloudy
1:53 AM 59.0 °F - 55.9 °F 90% 29.97 in 10.0 mi Calm Calm - N/A   Mostly Cloudy
2:53 AM 63.0 °F - 57.9 °F 84% 29.95 in 10.0 mi Calm Calm - N/A   Overcast
3:53 AM 63.0 °F - 57.0 °F 81% 29.93 in 10.0 mi SSE 4.6 mph - N/A   Clear
4:53 AM 63.0 °F - 55.0 °F 75% 29.94 in 10.0 mi South 5.8 mph - N/A   Clear
5:53 AM 62.1 °F - 55.0 °F 78% 29.95 in 10.0 mi South 4.6 mph - N/A   Scattered Clouds
6:53 AM 63.0 °F - 55.0 °F 75% 29.95 in 10.0 mi South 5.8 mph - N/A   Overcast
7:53 AM 64.9 °F - 55.0 °F 70% 29.97 in 10.0 mi South 8.1 mph - N/A   Overcast
8:53 AM 66.9 °F - 55.0 °F 66% 29.97 in 10.0 mi South 11.5 mph - N/A   Mostly Cloudy
9:53 AM 71.1 °F - 57.9 °F 63% 29.99 in 10.0 mi SSW 15.0 mph 23.0 mph N/A   Mostly Cloudy
10:53 AM 75.9 °F - 60.1 °F 58% 29.98 in 10.0 mi SW 23.0 mph 29.9 mph N/A   Scattered Clouds
11:53 AM 79.0 °F - 60.1 °F 52% 29.98 in 10.0 mi SW 19.6 mph 27.6 mph N/A   Mostly Cloudy
12:53 PM 78.1 °F - 59.0 °F 52% 29.97 in 10.0 mi SW 17.3 mph 24.2 mph N/A   Partly Cloudy
1:53 PM 81.0 °F 81.6 °F 60.1 °F 49% 29.96 in 10.0 mi SW 17.3 mph - N/A   Clear
2:53 PM 81.0 °F 81.1 °F 57.9 °F 45% 29.92 in 10.0 mi SW 18.4 mph 24.2 mph N/A   Clear
3:53 PM 82.0 °F 82.1 °F 59.0 °F 45% 29.88 in 10.0 mi South 20.7 mph 27.6 mph N/A   Clear
4:53 PM 82.0 °F 82.0 °F 57.9 °F 44% 29.86 in 10.0 mi SW 17.3 mph 25.3 mph N/A   Clear
5:53 PM 82.0 °F 81.7 °F 57.0 °F 42% 29.83 in 10.0 mi SSW 19.6 mph 27.6 mph N/A   Clear
6:53 PM 81.0 °F 81.0 °F 57.0 °F 44% 29.82 in 10.0 mi SSW 12.7 mph 21.9 mph N/A   Clear
7:53 PM 78.1 °F - 55.9 °F 46% 29.81 in 10.0 mi SSW 9.2 mph 18.4 mph N/A   Clear
8:53 PM 72.0 °F - 55.9 °F 57% 29.80 in 10.0 mi Calm Calm - N/A   Clear
9:53 PM 72.0 °F - 55.9 °F 57% 29.80 in 10.0 mi SSE 3.5 mph - N/A   Clear
10:53 PM 66.0 °F - 55.9 °F 70% 29.79 in 10.0 mi Calm Calm - N/A   Clear
11:53 PM 70.0 °F - 55.9 °F 61% 29.78 in 10.0 mi South 8.1 mph - N/A   Clear